Regional Weather Roundup
Issued by NWS Wakefield, VA

Home | Current Version | Previous Version | Text Only | Print | Product List | Glossary Off
Versions: 1 2 3 4 5 6 7 8 9 10 11 12 13 14 15 16 17 18 19 20 21 22 23 24 25 26 27 28 29 30 31 32 33 34 35 36 37 38 39 40 41 42 43 44 45 46 47 48 49 50

000
ASUS41 KAKQ 041414
RWRAKQ

REGIONAL WEATHER ROUNDUP
NATIONAL WEATHER SERVICE WAKEFIELD VA
1000 AM EDT FRI SEP 04 2015

Note: "fair" indicates few or no clouds below 12,000 feet with no
significant weather and/or obstructions to visibility. * = Denotes
station may not report precipitation (e.g., rain,snow,etc.),
thunder or fog.

VAZ042-051-052>054-056-041500-
NORTHERN VIRGINIA

CITY           SKY/WX    TMP DP  RH WIND       PRES   REMARKS
WASH NATIONAL  PTSUNNY   84  69  60 NE7       30.01R
DULLES         MOSUNNY   83  68  60 N6        30.02R
FORT BELVOIR   SUNNY     83  69  62 VRB3      30.00R
QUANTICO       MOSUNNY   84  69  60 NE7       30.01R
FREDERICKSBRG* SUNNY     81  70  68 NE5       29.99R
STAFFORD*      SUNNY     83  68  60 N8        30.05R
WARRENTON      SUNNY     85  72  65 N8        30.02R
CULPEPER*      MOSUNNY   80  72  75 N6        30.03R
MANASSAS*      SUNNY     82  70  65 N8        30.01R
LEESBURG*      SUNNY     82  72  69 N6        30.03S
WINCHESTER     SUNNY     81  70  69 CALM      30.05S
FRONT ROYAL*   FAIR      77  70  78 CALM      30.05S
LURAY*         FAIR      73  70  88 CALM      30.06S
$$

VAZ048-049-060>072-079>083-041500-
CENTRAL AND SOUTH CENTRAL VIRGINIA

CITY           SKY/WX    TMP DP  RH WIND       PRES   REMARKS
RICHMOND       MOSUNNY   84  70  62 NE7       29.99R
CHESTERFIELD*  FAIR      82  64  54 NE5       30.01R
PETERSBURG*    MOSUNNY   84  76  78 N3        30.00R
HANOVER        MOSUNNY   82  71  69 CALM      30.01R
TAPPAHANNOCK*  SUNNY     83  70  63 CALM      30.00R
QUINTON*       FAIR      81  72  75 CALM      29.98R
CHARLOTTSVILLE MOSUNNY   82  67  60 CALM      30.03R
GORDONSVILLE*  FAIR      84  70  64 NE7       30.02R
ORANGE*        SUNNY     82  70  65 NW6       30.03R
LOUISA*        SUNNY     82  70  65 N6        30.01R
BUMPASS*       FAIR      80  70  71 NE6       30.01R
FARMVILLE*     SUNNY     83  68  60 NE6       30.00S
CREWE*         FAIR     N/A N/A N/A CALM      30.00S
FORT PICKETT*  FAIR      81  70  71 NE5       30.01R
CHASE CITY*    FAIR      83  74  73 N6        30.01S
CLARKSVILLE*   FAIR      79  70  73 CALM      30.00R
SOUTH HILL*    MOSUNNY   80  71  73 N5        30.06R
LAWRENCEVILLE* FAIR      81  72  74 CALM      30.00R
EMPORIA*       SUNNY     77  72  83 NW3       30.00R
$$

VAZ088>098-041500-
SOUTHEAST VIRGINIA

CITY           SKY/WX    TMP DP  RH WIND       PRES   REMARKS
NORFOLK        SUNNY     84  74  71 NE6       29.97R
VIRGINIA BEACH MOSUNNY   89  71  55 NE12      29.96R HX  95
NORFOLK NAVAL  MOSUNNY   85  76  74 NE7       29.99R HAZE
WEST POINT*    SUNNY     86  71  60 CALM      29.99R
SALUDA*        FAIR      82  76  79 NE3       29.98R
NEWPORT NEWS   SUNNY     86  72  62 NE7       29.98R
LANGLEY AFB    SUNNY     85  75  72 NE9       29.97R
FORT EUSTIS    SUNNY     86  74  66 NE5       29.96R
WILLIAMSBURG*  SUNNY     86  75  70 CALM      29.99R HX  95
HR EXEC AP*      N/A     84  75  74 NE5       29.99R
FRANKLIN*      NOT AVBL
WAKEFIELD      SUNNY     85  73  67 VRB3      29.98R HAZE
$$

VAZ020-022-025-037-045-041500-
WEST CENTRAL AND SOUTHWEST VIRGINIA

CITY           SKY/WX    TMP DP  RH WIND       PRES   REMARKS
STAUNTON*      SUNNY     77  69  76 CALM      30.10R
WAYNESBORO*    FAIR      77  68  73 NW3       30.09S
HOT SPRINGS VA SUNNY     73  64  72 E6        30.20R
LYNCHBURG      SUNNY     81  67  62 N5        30.05S
DANVILLE       SUNNY     83  69  62 N7        30.02R
SOUTH BOSTON*  FAIR      80  70  72 N5        30.02R
MARTINSVILLE   SUNNY     82  67  60 N5        30.07R
ROANOKE        SUNNY     79  67  66 N3        30.08S
BLACKSBURG     SUNNY     75  69  82 CALM      30.15R
DUBLIN*          N/A     76  68  75 CALM      30.13R
MARION*        SUNNY     76  66  72 CALM      30.17S
HILLSVILLE*    SUNNY     73  65  78 N6        30.14R
RICHLANDS*     FAIR      71  37  28 CALM      30.16S
WISE*          SUNNY     75  63  64 NE7       30.17S
ABINGDON*      SUNNY     76  66  69 E3        30.12S
$$

MDZ021>025-VAZ099-100-041500-
SOUTHERN MARYLAND AND THE DELMARVA PENINSULA

CITY           SKY/WX    TMP DP  RH WIND       PRES   REMARKS
PATUXENT RIVER MOSUNNY   83  73  72 NE7       29.98R HAZE
BAY BRIDGE APT   N/A     81  72  74 CALM      29.99R
LEONARDTOWN    NOT AVBL
DOVER          SUNNY     81  75  83 E10       30.00R
GEORGETOWN     SUNNY     84  70  62 NE9       30.00R
EASTON         SUNNY     82  73  74 E5        30.03R HAZE
CAMBRIDGE      SUNNY     81  70  69 NE5       29.98R
SALISBURY      MOSUNNY   83  69  62 E10       29.98R
OCEAN CITY     SUNNY     81  72  74 E10       29.99R
WALLOPS ISLAND MOSUNNY   84  73  69 E10       29.98R
ACCOMACK*      SUNNY    N/A N/A N/A E9        29.97R
$$

NCZ012>017-030>032-041500-
NORTH CENTRAL AND EASTERN NORTH CAROLINA

CITY           SKY/WX    TMP DP  RH WIND       PRES   REMARKS
ROANOKE RAPIDS FAIR      81  72  74 CALM      29.99R
RALEIGH        MOSUNNY   81  70  69 CALM      30.00R
ELIZABETH CITY SUNNY     83  73  72 N5        29.96R
AHOSKIE*       SUNNY     80  73  79 CALM      29.98S
EDENTON*       SUNNY     81  72  74 NW3       29.97R
CURRITUCK*     SUNNY     83  71  68 N6        29.97R
KILL DEVIL HLS SUNNY     87  74  65 W3        29.95R HX  96
MANTEO         SUNNY     81  75  82 NW3       29.96R
CAPE HATTERAS  MOSUNNY   82  74  76 N7        29.96S
TARBORO*       FAIR      81  72  76 CALM      29.99R
GOLDSBORO      SUNNY     84  71  65 NW1       29.97R
WASHINGTON     MOSUNNY   81  72  73 CALM      29.98R
GREENVILLE     MOSUNNY   81  72  74 CALM      30.00R HAZE
NEW BERN       SUNNY     83  72  69 N5        29.99R
WILMINGTON     SUNNY     83  72  69 N3        29.97R
$$

VAZ048-041500-
ELSEWHERE

CITY           SKY/WX    TMP DP  RH WIND       PRES   REMARKS
HARRISBURG PA  SUNNY     81  67  62 E7        30.04R
BALTIMORE      MOSUNNY   84  68  58 NE7       30.00R
ANNAPOLIS      SUNNY     81  72  74 VRB6      30.00R HAZE
ANDREWS AFB    SUNNY     81  70  68 NE6       30.00R
PHILADELPHIA   PTSUNNY   84  68  58 E9        30.02R
HENDERSON NC   SUNNY     80  68  65 NE3       30.01R
GREENSBORO     MOSUNNY   81  67  62 NE9       30.03R
ROCKY MOUNT    SUNNY     84  71  65 N3        29.99R
$$

VAZ100-041500-
MARINE

STATION/POSITION TIME  TEMP    WIND        PRES    WAVE   SWELL
                       AIR SEA DIR/SP/G            HT/PER HT/PER
                 (UTC) (F)     (DEG/KT/KT) (MB)    (FT/S) (FT/S)
BRANDYWINE LGT   1300   77 77   80/  7/  9 1015.7R
CAPE MAY NJ      1300   79 80   80/  7/ 10 1015.1R
LEWES DE         1300   77 77   70/  8/  9 1015.2R
15NM E FENWICK I 1350   79 80   50/ 12/ 14 1015.5R   1/ 9   2/ 9
OCEAN-CITY-INLET 1300   79 79   80/  5/  7 1014.2R
GOOSES REEF MD   1400   80 80   60/  8/ 10 1016.6R
COVE POINT MD    1300   80      30/  3/  4 1015.5R
SOLOMONS ISLAND  1300      81                N/A
BISHOPS HEAD MD  1300   80 81   60/  7/  9 1013.8R
PINEY POINT MD   1305           50/  3/  5   N/A
POTOMAC MD       1400   81 81   60/  6/  6 1014.2R   1
CAMBRIDGE MD     1300   78 82   80/  6/  7 1014.1R
LEWISETTA VA     1300   81 82   40/  3/  5 1014.3R
RAPPAHANNOCK LGT 1300           30/ 10/ 11 1014.8R
STINGRAY PT      1400   81 81   40/  6/  8 1015.5R
YORK RVR RNG VA  1300   81      40/  8/ 10 1013.8R
JAMESTOWN VA     1400   83 82  360/  2/  4   N/A
DOMINION TERM VA 1300   82      40/  5/  8 1014.3R
KIPTOPEKE VA     1300      80   30/  6/  8   N/A
CAPE HENRY VA    1300   80      10/  9/ 10   N/A
CHESAPEAKE LGHT  1300   80      20/ 10/ 11 1014.8R
WILLOUBY STN VA  1300   81      20/  8/ 11 1015.2R
CAPE HENRY BUOY  1328      80                N/A     1/12
1ST LANDING BUOY 1400      80              1014.5R   1
CAPE CHARLES BUO 1326      79                N/A     1/11   2/11
OFFSHORE WE BUOY 1311      80                N/A     1/12   2/12
64NM E OF VA BCH 1350   80 79   10/  8/ 10 1013.8R   1/ 7   2/ 7
DUCK PIER NC     1300   80 80  320/  2/  3 1013.3R
44100 DUCK FRF   1324      80                N/A     1/13
44056 DUCK FRF   1311      80                N/A     1/11
OREGON INLET NC  1300   81 82  310/  6/  7 1013.9R
HATTERAS NC      1300   80 82  320/  8/  9 1014.1R
DIAMOND SHLS NC  1350   81 85  340/  8/ 10 1014.5R   1/12
CAPE LOOKOUT NC  1400   83     360/  6/  7 1014.3R
$$



USA.gov is the U.S. government's official web portal to all federal, state and local government web resources and services.